Date,TemperatureHighF,TemperatureAvgF,TemperatureLowF,DewpointHighF,DewpointAvgF,DewpointLowF,HumidityHigh,HumidityAvg,HumidityLow,PressureMaxIn,PressureMinIn,WindSpeedMaxMPH,WindSpeedAvgMPH,GustSpeedMaxMPH,PrecipitationSumIn
2013-1-4,37.0,35.6,33.0,33.0,31.2,27.0,94,83,69,0.00,40.00,19,7,26,0.00
2013-1-5,37.0,34.8,33.0,34.0,33.0,32.0,98,92,80,0.00,40.00,9,3,21,0.00
2013-1-8,36.0,32.4,30.0,22.0,18.6,15.0,70,56,50,0.00,40.00,13,7,17,0.00
2013-1-9,37.0,33.2,27.0,36.0,23.7,11.0,99,70,41,0.00,40.00,20,10,26,0.00
2013-1-10,36.0,34.3,33.0,34.0,32.7,30.0,99,93,85,0.00,40.00,13,4,22,0.00
2013-1-11,41.0,35.2,33.0,35.0,32.4,27.0,99,90,60,0.00,40.00,19,4,32,0.00
2013-1-12,41.0,37.2,33.0,41.0,36.9,33.0,99,98,94,0.00,40.00,16,5,24,0.00
2013-1-13,42.0,40.1,38.0,41.0,39.8,38.0,99,98,96,0.00,40.00,22,14,30,0.00
2013-1-14,41.0,38.4,32.0,40.0,36.4,29.0,99,92,76,0.00,40.00,30,15,45,0.00
2013-1-15,37.0,33.4,29.0,36.0,31.5,28.0,98,92,78,0.00,40.00,16,7,20,0.00
2013-1-16,37.0,36.4,36.0,36.0,35.8,35.0,98,97,94,0.00,40.00,15,-43,18,0.00
2013-1-23,39.0,38.2,37.0,39.0,37.6,36.0,99,97,94,0.00,40.00,23,12,35,0.00
2013-1-24,38.0,36.0,34.0,38.0,35.0,33.0,98,96,90,0.00,40.00,11,4,16,0.00
2013-1-25,38.0,33.0,23.0,33.0,23.9,15.0,93,69,54,0.00,40.00,14,5,21,0.00
2013-1-26,29.0,22.2,18.0,16.0,6.1,3.0,72,49,32,0.00,40.00,10,2,12,0.00
2013-1-27,23.0,20.0,14.0,11.0,8.5,5.0,74,60,46,0.00,40.00,17,5,21,0.00
2013-1-28,32.0,21.7,13.0,32.0,18.7,4.0,99,88,64,0.00,40.00,21,10,34,0.00
2013-1-29,38.0,34.9,32.0,38.0,34.9,32.0,99,99,99,0.00,40.00,21,7,34,0.00
2013-1-30,39.0,38.1,36.0,39.0,37.8,36.0,99,98,96,0.00,40.00,18,9,27,0.00
2013-1-31,37.0,35.1,33.0,36.0,34.2,32.0,99,96,91,0.00,40.00,11,-22,17,0.00